Location: Gisborne
(38.6530°S, 178.0040°E)
Time: 04:54:17
(UTC+13:00)

Cosmos 2208 Rocket - Pass Details

Date: 24 January 2019
Orbit: 755 x 805 km, 74.0° (Epoch: 21 October)

Event Time Altitude Azimuth Distance (km) Brightness Sun altitude
Rises 21:59:52 0° 203° (SSW) 3,250 8.5 -15.5°
Reaches altitude 10° 22:02:16 10° 207° (SSW) 2,320 7.6 -15.9°
Maximum altitude 22:07:26 58° 284° (WNW) 899 4.5 -16.6°
Enters shadow 22:11:28 17° 359° (N) 1,899 5.7 -17.2°
